Tracking 33197 objects as of 18-Feb-2026
HD Live streaming from Space Station
objects crossing your sky now

STARLINK-2707

Track STARLINK-2707 now!
10-day predictions
STARLINK-2707 is classified as:


NORAD ID: 48669
Int'l Code: 2021-044AH
Perigee: 481.5 km
Apogee: 483.2 km
Inclination: 53.2 °
Period: 94.1 minutes
Semi major axis: 6853 km
RCS: Unknown
Launch date: May 26, 2021
Source: United States (US)
Launch site: AIR FORCE EASTERN TEST RANGE (AFETR)
Your satellite tracking list
Your tracking list is empty




NASA's NSSDC Master Catalog

Two Line Element Set (TLE):
1 48669U 21044AH  26048.67981462  .00002946  00000-0  11155-3 0  9994
2 48669  53.1616 197.0473 0001248  79.1869 280.9272 15.30204029260894
Source of the keplerian elements: AFSPC